[[{"header":{"parameterUnit":"m.s-1","parameterCategory":1,"la1":30.2991,"la2":30.254,"lo1":-89.0895,"lo2":-89.0444,"dy":0.0017,"dx":0.0017,"nx":28,"ny":28,"refTime":"2024-10-18T03:00:00:Z","depth":0,"parameterNumber":2,"parameterNumberName":"U-component_of_WINDS"},"data":[0,0,0,0,0,0,0,0,0,0,0,0,0,0,0,0,0,0,0,0,0,0,0,0,0,0,0,0,0,0,0,0,0,0,0,0,0,0,0,0,0,0,0,0,0,0,0,0,0,0,0,0,0,0,0,0,0,0,-5.2249,-5.2249,0,-5.2223,-5.2223,-5.2223,-5.2062,-5.2058,-5.2054,-5.2051,-5.2026,-5.2029,-5.2032,0,0,0,0,0,0,0,0,0,0,0,0,0,-5.2163,-5.2165,-5.2249,-5.2249,-5.2249,-5.2224,-5.2223,-5.2223,-5.2063,-5.2058,-5.2053,-5.2049,-5.2025,-5.2029,-5.2032,0,0,0,0,0,0,0,0,0,0,0,0,0,-5.2175,-5.2166,-5.225,-5.2166,-5.2158,-5.2224,-5.2223,-5.2223,-5.2064,-5.2058,-5.2052,-5.2047,-5.2024,-5.2029,-5.2033,-5.2177,0,0,-5.2047,-5.2049,0,0,0,0,0,0,0,0,-5.2175,-5.2179,-5.2179,-5.2172,-5.2163,-5.214,-5.2183,-5.2208,-5.2065,-5.21,-5.2051,-5.2044,-5.2069,-5.2069,-5.2077,-5.2176,-5.2175,-5.2047,-5.205,-5.2052,-5.2053,0,0,0,0,0,0,0,-5.2174,-5.2179,-5.2239,-5.2179,-5.2169,-5.2131,-5.2126,-5.2187,-5.2118,-5.2096,-5.2085,-5.2084,-5.2064,-5.2074,-5.2076,-5.2175,-5.2047,-5.2051,-5.2054,-5.2055,-5.2393,-5.2399,0,0,0,0,0,0,-5.2185,-5.2179,-5.224,-5.2238,-5.2155,-5.2137,-5.2131,-5.2153,-5.2116,-5.2105,-5.2089,-5.2076,-5.2069,-5.2071,-5.2074,-5.2242,-5.2052,-5.2056,-5.2058,-5.2386,-5.2394,-5.2401,0,0,0,0,0,0,-5.2184,-5.2192,-5.2241,-5.2206,-5.2209,-5.2144,-5.217,-5.2156,-5.2165,-5.2111,-5.2097,-5.2111,-5.2064,-5.2068,-5.2153,-5.2239,-5.2058,-5.2062,-5.2379,-5.2389,-5.2397,-5.2578,0,0,0,0,0,0,-5.2182,-5.2192,-5.2246,-5.2208,-5.2211,-5.232,-5.2176,-5.216,-5.2173,-5.2157,-5.2128,-5.2118,-5.206,-5.2147,-5.2158,-5.2242,-5.2065,-5.2371,-5.2383,-5.2394,-5.2564,-5.2593,-5.2617,0,0,0,0,0,-5.2179,-5.2298,-5.2249,-5.2258,-5.2277,-5.2325,-5.2327,-5.2257,-5.2181,-5.2235,-5.22,-5.2119,-5.2228,-5.2157,-5.2168,-5.2254,-5.2365,-5.238,-5.2393,-5.2553,-5.2587,-5.2616,0,0,0,0,0,0,-5.2348,-5.2291,-5.2237,-5.2347,-5.2342,-5.2298,-5.2364,-5.2296,-5.2313,-5.2297,-5.221,-5.2205,-5.2304,-5.2287,-5.221,-5.2393,-5.2283,-5.23,-5.24,-5.2433,-5.2458,-5.2461,-5.2069,0,0,0,0,0,-5.2398,-5.2441,-5.2389,-5.2491,-5.2492,-5.2429,-5.2447,-5.2394,-5.2386,-5.2383,-5.2354,-5.235,-5.2383,-5.2407,-5.2434,-5.2561,-5.2553,-5.2626,-5.2652,-5.2674,-5.269,-5.2757,-5.2789,-5.2447,-5.2447,-5.2447,0,0,-5.2501,-5.2476,-5.2508,-5.2525,-5.2515,-5.2562,-5.2428,-5.2484,-5.2519,-5.2391,-5.247,-5.2449,-5.2439,-5.2547,-5.2592,-5.2536,-5.2783,-5.2692,-5.271,-5.2714,-5.2775,-5.2808,-5.2837,-5.2457,-5.2455,-5.2453,0,0,-5.2714,-5.2699,-5.2782,-5.2776,-5.2762,-5.272,-5.274,-5.2707,-5.2688,-5.2766,-5.2672,-5.2712,-5.2771,-5.2768,-5.2774,-5.2989,-5.2916,-5.3,-5.3137,-5.3204,-5.3231,-5.3255,-5.3332,-5.3361,-5.3016,-5.3016,-5.3017,0,-5.2845,-5.2912,-5.2834,-5.2897,-5.2907,-5.2794,-5.2879,-5.2876,-5.2874,-5.2884,-5.282,-5.2893,-5.2878,-5.2983,-5.3036,-5.3044,-5.3066,-5.3003,-5.3233,-5.3256,-5.3277,-5.335,-5.3379,-5.3027,-5.3025,-5.3024,-5.3023,0,-5.3074,-5.3122,-5.3191,-5.3191,-5.3209,-5.3283,-5.3218,-5.3246,-5.3192,-5.3157,-5.3238,-5.3216,-5.3238,-5.3259,-5.3207,-5.3358,-5.3324,-5.3249,-5.3136,-5.3321,-5.3389,-5.3416,-5.3042,-5.3038,-5.3035,-5.3032,0,0,-5.3391,-5.3348,-5.3375,-5.3374,-5.3352,-5.3388,-5.3458,-5.3478,-5.3505,-5.3507,-5.3564,-5.3617,-5.3547,-5.3555,-5.3501,-5.356,-5.3732,-5.3477,-5.3475,-5.3526,-5.39,-5.3957,-5.3991,-5.3684,-5.3689,-5.3693,-5.3901,0,-5.3596,-5.3711,-5.3644,-5.3769,-5.3814,-5.3708,-5.3768,-5.3762,-5.3732,-5.3766,-5.3732,-5.3771,-5.3676,-5.368,-5.3733,-5.37,-5.3806,-5.3684,-5.3737,-5.374,-5.3743,-5.4026,-5.4086,-5.4284,-5.3927,-5.3931,-5.3934,0,-5.385,-5.3864,-5.3994,-5.3964,-5.398,-5.4036,-5.405,-5.4084,-5.4075,-5.4049,-5.4059,-5.3991,-5.4058,-5.3947,-5.4039,-5.3958,-5.3975,-5.3963,-5.3969,-5.3971,-5.3849,-5.4037,-5.4345,-5.4375,-5.3975,-5.3971,-5.3969,0,-5.4071,-5.4121,-5.4205,-5.4208,-5.4175,-5.4217,-5.4205,-5.4191,-5.4208,-5.4221,-5.4232,-5.4253,-5.4265,-5.4284,-5.4225,-5.4149,-5.4326,-5.4209,-5.4307,-5.4309,-5.4349,-5.4347,-5.4665,-5.436,-5.4359,-5.4359,-5.4358,0,-5.4307,-5.4391,-5.4304,-5.4356,-5.4447,-5.437,-5.4463,-5.444,-5.4429,-5.4475,-5.4385,-5.4431,-5.4349,-5.4388,-5.4342,-5.4426,-5.4432,-5.4414,-5.4401,-5.4422,-5.4425,-5.4433,-5.4418,-5.4367,-5.4365,-5.4363,-5.4362,0,-5.4568,-5.4513,-5.4598,-5.4561,-5.4553,-5.4623,-5.4591,-5.4638,-5.4602,-5.4662,-5.4672,-5.4616,-5.4656,-5.4599,-5.4633,-5.4602,-5.4719,-5.4684,-5.4722,-5.4712,-5.4813,-5.4805,-5.5148,-5.5189,-5.4857,-5.4861,-5.4863,0,-5.4722,-5.4784,-5.4754,-5.4779,-5.4773,-5.4813,-5.4831,-5.4758,-5.478,-5.4776,-5.4825,-5.4857,-5.488,-5.495,-5.4913,-5.4939,-5.4905,-5.5024,-5.4909,-5.4929,-5.4908,-5.4906,-5.4912,-5.5047,-5.5051,-5.5055,-5.5057,0,-5.5003,-5.4973,-5.5001,-5.5021,-5.5045,-5.5057,-5.5062,-5.5088,-5.5011,-5.5041,-5.5081,-5.5099,-5.5134,-5.5169,-5.5186,-5.5175,-5.5105,-5.5094,-5.5118,-5.5141,-5.5161,-5.5153,-5.4787,-5.5086,-5.5083,-5.5081,-5.508,-5.5079,-5.5216,-5.5267,-5.5254,-5.5289,-5.5285,-5.5293,-5.5336,-5.5306,-5.5338,-5.536,-5.5316,-5.5368,-5.5359,-5.5375,-5.5372,-5.5412,-5.5361,-5.5396,-5.5405,-5.5415,-5.5431,-5.5154,-5.5415,-5.5414,-5.5413,-5.5413,-5.5412,0,-5.5493,-5.5479,-5.5513,-5.5523,-5.5552,-5.5482,-5.5485,-5.5514,-5.556,-5.5558,-5.5582,-5.5629,-5.5663,-5.5629,-5.5656,-5.5695,-5.5664,-5.5705,-5.5702,-5.5701,-5.5475,-5.5451,-5.573,-5.573,-5.573,-5.573,-5.573,-5.573,-5.564,-5.5723,-5.5692,-5.5773,-5.5759,-5.5809,-5.5817,-5.5824,-5.5821,-5.5878,-5.5906,-5.5883,-5.5869,-5.5894,-5.5922,-5.5911,-5.5926,-5.5979,-5.5958,-5.5747,-5.5716,-5.5687,-5.5664,-5.5983,-5.5983,-5.618,-5.6182,-5.6183]},{"header":{"parameterUnit":"m.s-1","parameterCategory":1,"la1":30.2991,"la2":30.254,"lo1":-89.0895,"lo2":-89.0444,"dy":0.0017,"dx":0.0017,"nx":28,"ny":28,"refTime":"2024-10-18T03:00:00:Z","depth":0,"parameterNumber":3,"parameterNumberName":"V-component_of_WINDS"},"data":[0,0,0,0,0,0,0,0,0,0,0,0,0,0,0,0,0,0,0,0,0,0,0,0,0,0,0,0,0,0,0,0,0,0,0,0,0,0,0,0,0,0,0,0,0,0,0,0,0,0,0,0,0,0,0,0,0,0,-0.624,-0.624,0,-0.6248,-0.6248,-0.6248,-0.6208,-0.6207,-0.6206,-0.6205,-0.6216,-0.6217,-0.6218,0,0,0,0,0,0,0,0,0,0,0,0,0,-0.6193,-0.6194,-0.624,-0.624,-0.624,-0.6247,-0.6248,-0.6248,-0.6208,-0.6207,-0.6206,-0.6204,-0.6215,-0.6217,-0.6219,0,0,0,0,0,0,0,0,0,0,0,0,0,-0.6208,-0.6194,-0.624,-0.6221,-0.622,-0.6247,-0.6248,-0.6248,-0.6209,-0.6207,-0.6205,-0.6204,-0.6215,-0.6217,-0.6219,-0.6266,0,0,-0.6225,-0.6226,0,0,0,0,0,0,0,0,-0.6207,-0.621,-0.6224,-0.6223,-0.6221,-0.6225,-0.6235,-0.6254,-0.6209,-0.6213,-0.6205,-0.6203,-0.6221,-0.6222,-0.6227,-0.6266,-0.6267,-0.6225,-0.6226,-0.6227,-0.6228,0,0,0,0,0,0,0,-0.6206,-0.6209,-0.6243,-0.6224,-0.6222,-0.6213,-0.6213,-0.6238,-0.6226,-0.6213,-0.621,-0.6211,-0.6219,-0.6225,-0.6227,-0.6267,-0.6225,-0.6227,-0.6228,-0.6229,-0.6344,-0.6346,0,0,0,0,0,0,-0.6207,-0.6209,-0.6243,-0.6243,-0.621,-0.6215,-0.6216,-0.6226,-0.6226,-0.6224,-0.6212,-0.6209,-0.6223,-0.6225,-0.6227,-0.6283,-0.6227,-0.6229,-0.623,-0.6343,-0.6345,-0.6347,0,0,0,0,0,0,-0.6207,-0.6211,-0.6242,-0.6225,-0.6228,-0.6218,-0.6229,-0.6227,-0.6233,-0.6226,-0.6224,-0.6221,-0.6221,-0.6225,-0.6256,-0.6283,-0.623,-0.6232,-0.634,-0.6343,-0.6346,-0.6394,0,0,0,0,0,0,-0.6205,-0.6211,-0.6228,-0.6226,-0.623,-0.6271,-0.6231,-0.6228,-0.6236,-0.6232,-0.6233,-0.6232,-0.622,-0.6253,-0.6258,-0.6285,-0.6234,-0.6338,-0.6342,-0.6345,-0.639,-0.6398,-0.6405,0,0,0,0,0,-0.6204,-0.6243,-0.623,-0.6234,-0.6251,-0.6273,-0.6275,-0.626,-0.6238,-0.6256,-0.6251,-0.6232,-0.6278,-0.6257,-0.6262,-0.629,-0.6336,-0.6341,-0.6345,-0.6387,-0.6397,-0.6405,0,0,0,0,0,0,-0.625,-0.6242,-0.6228,-0.6266,-0.627,-0.6266,-0.6288,-0.6271,-0.6282,-0.6278,-0.6259,-0.626,-0.6295,-0.6295,-0.6271,-0.6335,-0.6304,-0.6309,-0.6334,-0.6343,-0.6351,-0.6351,-0.6235,0,0,0,0,0,-0.6264,-0.6282,-0.6274,-0.6309,-0.6311,-0.6299,-0.6308,-0.6296,-0.63,-0.6302,-0.6299,-0.6305,-0.632,-0.6331,-0.6345,-0.6389,-0.6389,-0.641,-0.6418,-0.6424,-0.643,-0.6453,-0.6462,-0.636,-0.636,-0.636,0,0,-0.6295,-0.6293,-0.6305,-0.6318,-0.632,-0.6339,-0.6301,-0.6323,-0.6337,-0.6305,-0.6335,-0.6333,-0.6338,-0.6376,-0.6392,-0.6377,-0.6457,-0.6429,-0.6434,-0.6436,-0.6458,-0.6468,-0.6476,-0.6363,-0.6363,-0.6362,0,0,-0.6361,-0.6361,-0.639,-0.6392,-0.6394,-0.6385,-0.6392,-0.639,-0.6387,-0.6416,-0.6392,-0.6409,-0.6436,-0.644,-0.6446,-0.6511,-0.6494,-0.6516,-0.6556,-0.6579,-0.6587,-0.6594,-0.6619,-0.6628,-0.6521,-0.6521,-0.6521,0,-0.64,-0.6427,-0.6407,-0.643,-0.6437,-0.6407,-0.6436,-0.6439,-0.6447,-0.6452,-0.6434,-0.6467,-0.6468,-0.6506,-0.6522,-0.6527,-0.6535,-0.6517,-0.6587,-0.6594,-0.6601,-0.6624,-0.6633,-0.6524,-0.6524,-0.6523,-0.6523,0,-0.6474,-0.6493,-0.6516,-0.6523,-0.6532,-0.6558,-0.6543,-0.6554,-0.654,-0.6534,-0.6564,-0.6563,-0.6576,-0.6584,-0.6571,-0.6621,-0.6611,-0.659,-0.6559,-0.6613,-0.6635,-0.6644,-0.6528,-0.6527,-0.6526,-0.6525,0,0,-0.6573,-0.6566,-0.6576,-0.6578,-0.6577,-0.6592,-0.6616,-0.6628,-0.6638,-0.6643,-0.6664,-0.6687,-0.6667,-0.6673,-0.6661,-0.668,-0.6733,-0.6657,-0.6657,-0.6673,-0.6788,-0.6806,-0.6817,-0.672,-0.6722,-0.6723,-0.6789,0,-0.6639,-0.6681,-0.6663,-0.6706,-0.6724,-0.6694,-0.6715,-0.6717,-0.6711,-0.6725,-0.6718,-0.6735,-0.6707,-0.671,-0.6728,-0.6723,-0.6756,-0.6717,-0.6741,-0.6742,-0.6744,-0.6828,-0.6846,-0.6909,-0.6797,-0.6798,-0.6799,0,-0.6723,-0.673,-0.6775,-0.677,-0.6776,-0.6796,-0.6805,-0.6818,-0.6819,-0.6813,-0.6819,-0.6802,-0.6826,-0.6792,-0.6826,-0.68,-0.6808,-0.6806,-0.6808,-0.6812,-0.6776,-0.6836,-0.6928,-0.6938,-0.6812,-0.6811,-0.681,0,-0.6792,-0.6813,-0.6843,-0.6845,-0.684,-0.6854,-0.6853,-0.6852,-0.686,-0.6867,-0.6872,-0.6883,-0.6889,-0.6898,-0.6884,-0.686,-0.692,-0.6885,-0.6917,-0.6917,-0.6933,-0.6933,-0.703,-0.6934,-0.6934,-0.6934,-0.6934,0,-0.6869,-0.6899,-0.6874,-0.6892,-0.6924,-0.6902,-0.6934,-0.6929,-0.6929,-0.6946,-0.692,-0.6937,-0.6916,-0.6931,-0.692,-0.695,-0.6952,-0.6949,-0.6946,-0.6953,-0.6954,-0.696,-0.6956,-0.6936,-0.6936,-0.6935,-0.6935,0,-0.6954,-0.6938,-0.6969,-0.696,-0.6958,-0.6982,-0.6975,-0.6992,-0.6982,-0.7005,-0.7009,-0.6995,-0.7011,-0.6996,-0.7012,-0.7004,-0.7045,-0.7035,-0.7045,-0.7043,-0.7076,-0.7074,-0.7183,-0.7197,-0.709,-0.7091,-0.7092,0,-0.7006,-0.7027,-0.702,-0.7029,-0.7029,-0.7044,-0.7051,-0.703,-0.7039,-0.7041,-0.7058,-0.7071,-0.7082,-0.7109,-0.7101,-0.7112,-0.7104,-0.7141,-0.7106,-0.7112,-0.7107,-0.7107,-0.7109,-0.7149,-0.7151,-0.7152,-0.7152,0,-0.71,-0.709,-0.7101,-0.7109,-0.7118,-0.7124,-0.7128,-0.7137,-0.7115,-0.7126,-0.7141,-0.7149,-0.7164,-0.7179,-0.7187,-0.7186,-0.7167,-0.7163,-0.7171,-0.718,-0.7186,-0.7185,-0.7067,-0.7161,-0.7161,-0.716,-0.7159,-0.7159,-0.7171,-0.7189,-0.7186,-0.7199,-0.7199,-0.7202,-0.7218,-0.7209,-0.7221,-0.7232,-0.7218,-0.7237,-0.7237,-0.7246,-0.7247,-0.7263,-0.7247,-0.7259,-0.7262,-0.7266,-0.7272,-0.718,-0.7264,-0.7263,-0.7263,-0.7263,-0.7263,0,-0.7265,-0.7261,-0.7273,-0.7278,-0.7288,-0.7266,-0.7268,-0.7279,-0.7296,-0.7296,-0.7306,-0.7323,-0.7337,-0.7328,-0.7339,-0.7353,-0.7344,-0.7357,-0.7357,-0.7358,-0.7284,-0.7277,-0.7364,-0.7364,-0.7364,-0.7364,-0.7364,-0.7364,-0.7316,-0.7344,-0.7334,-0.7363,-0.7358,-0.7376,-0.738,-0.7383,-0.7383,-0.7404,-0.7414,-0.7407,-0.7405,-0.7415,-0.7426,-0.7423,-0.743,-0.7446,-0.7441,-0.7373,-0.7363,-0.7353,-0.7346,-0.7447,-0.7447,-0.7513,-0.7514,-0.7514]}]]